Wind_Speed
20 17 16 15 15 15 14 13 13 13 13 12 12 12 12 12 12 12 12 11 14 14 15 15 15 16 17 20 17 14 14 13
20 18 17 17 16 15 15 15 14 13 12 10 9 9 8 8 8 8 8 8 9 9 10 11 13 15 15 18 19 15 13 13
20 19 18 17 16 16 16 14 14 11 9 7 6 4 3 3 4 5 6 6 5 6 6 9 11 13 13 15 17 16 16 13
23 21 21 21 19 18 15 13 11 8 6 5 4 2 2 1 2 3 4 6 7 7 6 8 13 13 13 12 13 15 16 16
25 22 21 21 20 19 17 15 13 10 6 4 3 3 3 2 2 4 6 8 9 7 10 14 17 16 15 14 14 13 14 15
26 26 23 20 19 18 16 15 14 12 9 6 4 3 1 2 3 5 7 10 11 12 14 16 17 17 17 17 16 14 15 17
30 27 24 21 18 19 17 17 15 13 11 6 5 5 4 2 1 3 6 9 12 15 17 18 19 18 17 16 17 16 13 13
31 27 21 19 18 20 17 15 16 14 13 8 7 6 4 2 1 2 6 10 12 13 15 17 18 20 21 20 20 19 18 16
27 23 17 17 15 14 15 13 13 14 11 8 6 5 4 2 2 5 10 12 12 14 15 15 19 20 21 22 20 21 21 21
22 18 14 13 11 9 9 9 11 12 7 6 5 7 5 3 7 10 12 14 15 17 18 21 23 24 26 26 25 23 21 20
21 17 6 4 2 9 6 6 5 7 11 12 9 5 2 4 9 12 13 14 16 18 20 21 23 26 27 27 26 25 24 20
18 9 6 3 0 11 16 17 18 16 13 9 4 3 5 10 11 12 13 15 18 22 24 25 26 22 21 18 22 22 17 13
10 7 6 9 15 20 20 19 15 11 5 3 3 6 8 9 10 11 12 16 18 20 21 21 22 21 15 20 17 4 25 12
8 9 11 14 15 13 10 9 6 3 2 2 3 3 4 6 9 12 14 16 16 17 18 19 15 18 11 13 4 12 7 25
18 17 14 10 9 9 9 9 8 5 5 4 3 5 9 13 17 15 13 13 14 14 15 15 14 16 14 4 3 3 15 5
14 11 9 7 5 4 5 7 9 6 7 4 4 5 8 13 14 13 12 13 16 11 9 9 9 9 8 8 12 15 3 7
8 6 4 2 3 4 5 4 3 7 6 4 3 8 17 21 11 9 12 15 10 9 9 6 6 6 10 14 16 15 20 8
9 8 6 4 4 3 2 3 5 2 2 8 13 16 19 9 7 10 13 11 12 12 9 9 10 12 13 13 11 9 12 13
8 7 9 7 5 5 4 2 2 7 10 14 18 18 14 10 8 9 9 8 7 8 10 11 10 11 13 15 13 15 15 16
10 9 6 4 4 5 5 6 7 10 13 15 17 16 13 6 8 9 9 9 10 8 9 10 11 11 13 14 14 11 11 13
Wind_Direction
149 147 149 152 152 148 141 134 133 130 121 111 112 102 100 88 80 66 64 58 48 46 39 33 29 23 21 22 10 9 8 16
145 149 154 154 152 148 144 142 138 135 133 122 120 109 106 99 84 66 58 47 49 38 27 22 18 15 15 15 13 7 352 348
150 153 152 151 148 149 146 138 137 137 144 130 126 129 105 93 93 71 48 45 15 19 10 12 5 1 8 8 5 2 2 352
165 161 156 155 153 151 149 147 145 141 157 164 157 178 195 95 60 41 13 9 356 355 354 2 1 352 347 351 351 350 352 347
174 174 171 165 161 157 161 158 160 157 170 180 198 199 173 137 52 48 21 12 15 16 8 358 356 351 343 331 327 322 325 329
181 182 183 177 174 172 171 177 178 180 178 183 175 180 149 117 69 33 26 27 25 11 1 354 349 346 341 335 333 324 303 298
192 187 189 188 191 186 184 191 194 189 183 192 199 218 200 141 35 353 4 3 358 355 350 346 342 339 337 335 336 337 337 332
194 189 192 192 195 194 195 200 191 196 192 192 187 197 184 185 252 3 16 3 356 353 354 347 342 337 333 333 331 329 328 326
190 180 170 173 168 177 182 194 193 192 199 197 186 185 179 139 55 9 353 354 351 348 341 341 338 340 339 334 331 329 326 327
176 166 172 170 166 164 180 194 202 203 197 181 141 120 101 42 2 358 355 354 350 349 350 348 342 341 338 334 332 328 328 332
155 145 116 155 147 160 186 147 128 136 126 116 109 103 57 359 5 7 360 353 354 356 351 347 340 334 333 328 326 324 328 327
137 139 166 210 302 96 108 107 103 109 104 101 100 67 20 1 6 360 355 350 347 341 339 335 337 341 333 330 327 323 323 341
128 163 171 114 110 95 94 85 90 81 84 89 38 5 347 347 350 345 345 347 347 344 347 350 354 352 343 337 335 34 328 334
108 114 128 128 106 95 104 112 120 133 94 352 324 313 331 337 344 344 343 342 344 352 356 353 350 356 350 330 336 317 353 331
118 117 121 121 110 119 138 157 169 193 194 160 88 39 18 7 0 0 5 8 4 354 348 350 345 345 352 13 336 304 330 316
130 124 120 133 149 195 222 236 218 211 180 128 87 16 6 2 2 356 355 355 343 346 349 354 350 351 357 354 333 320 307 308
140 122 136 179 237 267 262 226 193 149 130 104 28 340 327 324 331 340 339 333 335 345 339 345 346 337 333 322 316 307 307 283
100 106 101 185 214 212 222 154 138 137 301 299 300 309 316 309 311 328 332 337 341 339 340 335 332 323 324 318 313 305 312 303
103 94 89 102 103 91 79 64 328 311 300 305 299 299 288 276 290 316 319 326 334 333 324 327 323 325 325 321 317 312 312 308
99 87 83 61 20 1 347 328 311 299 296 291 290 279 266 268 309 311 310 311 310 307 308 315 315 310 311 312 318 332 340 324
Height
830 831 833 835 837 838 839 839 839 841 842 845 846 846 847 848 849 848 846 848 847 847 846 846 845 843 842 840 838 837 835 834
830 832 834 836 837 838 838 838 839 842 843 844 847 847 849 847 849 849 847 850 847 848 847 846 846 845 843 841 839 838 836 835
830 833 834 836 838 839 840 841 842 843 845 845 845 849 849 850 849 849 849 848 849 847 847 847 846 846 844 842 840 839 837 836
831 832 834 835 837 839 842 843 843 845 848 845 846 847 849 848 851 849 850 849 849 847 847 847 846 845 844 843 842 839 838 837
830 834 836 835 836 836 839 839 842 842 845 845 847 846 848 847 850 850 850 849 848 848 847 847 846 845 843 842 842 840 838 837
829 831 833 835 835 836 840 842 842 842 843 844 845 847 847 847 849 850 849 849 849 848 846 846 845 844 843 841 840 838 836 835
827 831 831 833 836 834 837 840 841 842 842 845 844 846 848 848 849 849 848 847 847 847 846 844 843 841 841 839 838 837 835 833
826 829 832 834 834 836 837 840 841 841 843 844 845 846 847 847 848 847 847 846 845 844 843 843 842 840 838 837 835 833 832 831
828 834 834 837 838 841 841 843 841 843 844 845 845 846 847 848 848 847 846 844 844 843 841 839 839 838 836 834 832 830 829 827
832 838 839 839 840 843 844 845 843 844 844 845 845 847 848 848 848 846 845 843 842 840 838 835 836 834 832 831 829 828 826 824
835 839 842 840 844 839 842 843 843 844 846 846 847 848 848 847 845 845 844 842 840 839 837 836 835 833 830 828 827 824 823 820
836 841 843 844 846 842 842 844 845 847 847 848 848 848 847 846 845 844 843 842 838 837 835 835 833 830 827 825 824 822 820 818
838 841 844 846 845 844 846 848 850 850 851 849 849 848 848 847 844 843 841 839 837 836 834 832 830 828 825 823 820 819 819 818
837 839 842 845 845 846 849 850 851 850 851 850 850 849 847 844 842 841 838 837 836 834 833 831 830 829 826 823 820 817 816 817
840 842 843 845 845 847 849 850 850 850 850 850 850 849 848 847 846 843 840 838 836 835 833 831 829 828 828 827 824 821 816 813
843 844 845 846 846 847 847 847 846 848 849 849 849 848 846 844 842 843 842 839 836 833 832 831 830 828 826 825 826 825 819 808
845 845 846 848 848 847 847 846 847 848 849 849 848 846 842 841 840 841 838 838 836 832 831 830 829 828 827 824 822 821 820 816
846 846 846 846 847 847 847 848 849 850 849 847 845 842 840 839 838 836 836 836 834 833 832 829 828 827 825 823 821 819 815 815
847 847 846 846 846 847 848 848 848 848 847 845 843 840 838 837 836 835 833 832 830 830 831 829 826 823 823 822 818 816 813 811
848 848 848 848 847 847 847 847 846 844 842 840 838 836 836 836 836 834 834 834 833 829 827 826 825 822 820 819 815 814 812 809